Forest City, IA

1:10 PM CDT on April 25, 2017 (GMT -0500)
Forest City Municipal

Weather History for KFXY - December, 2012

Change the Weather History Date:

Wednesday, December 5, 2012

  Actual Average Record
Temperature  
Mean Temperature 29 °F -  
Max Temperature 41 °F 31 °F 42 °F (2015)
Min Temperature 17 °F 14 °F 3 °F (2013)
Degree Days  
Heating Degree Days 36    
Moisture  
Dew Point 18 °F    
Average Humidity 60    
Maximum Humidity 79    
Minimum Humidity 39    
Precipitation  
Precipitation 0.00 in - - ()
Sea Level Pressure  
Sea Level Pressure 30.18 in    
Wind  
Wind Speed 10 mph (SE)    
Max Wind Speed 24 mph    
Max Gust Speed 30 mph    
Visibility 10 miles    
Events      
Averages and records for this station are not official NWS values.
T = Trace of Precipitation, MM = Missing Value Source: NWS Daily Summary

Daily Weather History Graph

Daily Weather History Graph

Search for Another Location

Airport or City:

Trip Planner

Search our weather history database for the weather conditions in past years. The results will help you decide how hot, cold, wet, or windy it might be!

Date:

Astronomy

Dec. 05, 2012 Rise Set
Actual Time 7:31 AM CST 4:39 PM CST
Civil Twilight 6:59 AM CST 5:11 PM CST
Nautical Twilight 6:23 AM CST 5:46 PM CST
Astronomical Twilight 5:49 AM CST 6:21 PM CST
Moon 11:37 PM CST (12/5) 11:47 AM CST (12/5)
Length of Visible Light 10h 12m
Length of Day
9h 07m
Waning Gibbous, 59% of the Moon is Illuminated
Dec 5
Waning Gibbous
Dec 6
Last Quarter
Dec 13
New
Dec 19
First Quarter
Dec 28
Full

Hourly Weather History & Observations

Time (CST) Temp. Windchill Dew Point Humidity Pressure Visibility Wind Dir Wind Speed Gust Speed Precip Events Conditions
12:15 AM 19.4 °F - 12.2 °F 74% 30.37 in 10.0 mi Calm Calm - N/A   Clear
12:35 AM 19.4 °F - 12.2 °F 74% 30.37 in 10.0 mi Calm Calm - N/A   Clear
12:55 AM 19.4 °F 14.3 °F 12.2 °F 74% 30.37 in 10.0 mi North 3.5 mph - N/A   Clear
1:15 AM 17.6 °F 10.7 °F 12.2 °F 79% 30.36 in 10.0 mi NNE 4.6 mph - N/A   Clear
1:55 AM 17.6 °F - 12.2 °F 79% 30.35 in 10.0 mi Calm Calm - N/A   Clear
2:15 AM 19.4 °F 14.3 °F 12.2 °F 74% 30.35 in 10.0 mi ENE 3.5 mph - N/A   Clear
2:35 AM 21.2 °F 16.4 °F 12.2 °F 68% 30.36 in 10.0 mi East 3.5 mph - N/A   Clear
2:55 AM 21.2 °F 13.6 °F 12.2 °F 68% 30.36 in 10.0 mi East 5.8 mph - N/A   Clear
3:15 AM 21.2 °F 16.4 °F 12.2 °F 68% 30.36 in 10.0 mi East 3.5 mph - N/A   Clear
3:35 AM 19.4 °F 14.3 °F 12.2 °F 74% 30.35 in 10.0 mi East 3.5 mph - N/A   Clear
3:55 AM 19.4 °F - 12.2 °F 74% 30.35 in 10.0 mi Calm Calm - N/A   Clear
4:15 AM 19.4 °F 14.3 °F 12.2 °F 74% 30.35 in 10.0 mi East 3.5 mph - N/A   Clear
4:35 AM 19.4 °F 12.8 °F 12.2 °F 74% 30.35 in 10.0 mi ESE 4.6 mph - N/A   Clear
4:55 AM 19.4 °F 11.5 °F 12.2 °F 74% 30.34 in 10.0 mi East 5.8 mph - N/A   Clear
5:15 AM 19.4 °F 10.4 °F 12.2 °F 74% 30.34 in 10.0 mi East 6.9 mph - N/A   Clear
5:35 AM 19.4 °F 10.4 °F 12.2 °F 74% 30.34 in 10.0 mi ESE 6.9 mph - N/A   Clear
5:55 AM 21.2 °F 13.6 °F 12.2 °F 68% 30.34 in 10.0 mi ESE 5.8 mph - N/A   Clear
6:15 AM 19.4 °F 9.5 °F 12.2 °F 74% 30.33 in 10.0 mi East 8.1 mph - N/A   Clear
6:35 AM 21.2 °F 10.9 °F 12.2 °F 68% 30.33 in 10.0 mi ESE 9.2 mph - N/A   Clear
6:55 AM 21.2 °F 10.1 °F 12.2 °F 68% 30.32 in 10.0 mi ESE 10.4 mph - N/A   Clear
8:35 AM 23.0 °F 12.4 °F 14.0 °F 68% 30.31 in 10.0 mi ESE 10.4 mph - N/A   Clear
8:55 AM 26.6 °F 15.7 °F 14.0 °F 59% 30.31 in 10.0 mi SE 12.7 mph - N/A   Clear
9:15 AM 26.6 °F 14.3 °F 14.0 °F 59% 30.31 in 10.0 mi SE 16.1 mph - N/A   Clear
9:35 AM 28.4 °F 17.5 °F 14.0 °F 55% 30.31 in 10.0 mi SE 13.8 mph - N/A   Clear
9:55 AM 30.2 °F 18.1 °F 14.0 °F 51% 30.30 in 10.0 mi SE 18.4 mph - N/A   Clear
10:15 AM 32.0 °F 20.5 °F 14.0 °F 48% 30.29 in 10.0 mi SE 18.4 mph - N/A   Clear
10:35 AM 32.0 °F 20.1 °F 14.0 °F 48% 30.27 in 10.0 mi SSE 19.6 mph 23.0 mph N/A   Clear
10:55 AM 32.0 °F 20.5 °F 14.0 °F 48% 30.26 in 10.0 mi SSE 18.4 mph - N/A   Clear
11:15 AM 32.0 °F 21.2 °F 15.8 °F 51% 30.25 in 10.0 mi SE 16.1 mph 23.0 mph N/A   Clear
11:35 AM 33.8 °F 22.5 °F 15.8 °F 48% 30.24 in 10.0 mi SE 19.6 mph 23.0 mph N/A   Clear
11:55 AM 35.6 °F 25.9 °F 15.8 °F 44% 30.22 in 10.0 mi SE 16.1 mph - N/A   Clear
12:15 PM 37.4 °F 27.5 °F 15.8 °F 41% 30.20 in 10.0 mi SE 18.4 mph - N/A   Clear
12:35 PM 37.4 °F 27.8 °F 17.6 °F 45% 30.19 in 10.0 mi SSE 17.3 mph - N/A   Clear
12:55 PM 39.2 °F 29.8 °F 17.6 °F 42% 30.17 in 10.0 mi SSE 18.4 mph 24.2 mph N/A   Clear
1:15 PM 41.0 °F 31.6 °F 17.6 °F 39% 30.16 in 10.0 mi SE 20.7 mph 27.6 mph N/A   Clear
1:35 PM 39.2 °F 29.3 °F 19.4 °F 45% 30.15 in 10.0 mi SE 20.7 mph 25.3 mph N/A   Clear
1:55 PM 39.2 °F 29.6 °F 19.4 °F 45% 30.13 in 10.0 mi SE 19.6 mph - N/A   Clear
2:15 PM 39.2 °F 30.2 °F 19.4 °F 45% 30.11 in 10.0 mi SE 17.3 mph 24.2 mph N/A   Clear
2:35 PM 39.2 °F 28.7 °F 19.4 °F 45% 30.10 in 10.0 mi SE 23.0 mph 26.5 mph N/A   Clear
2:55 PM 39.2 °F 29.3 °F 19.4 °F 45% 30.10 in 10.0 mi SE 20.7 mph 26.5 mph N/A   Clear
3:15 PM 39.2 °F 30.2 °F 21.2 °F 49% 30.09 in 10.0 mi SE 17.3 mph 23.0 mph N/A   Clear
3:35 PM 37.4 °F 27.8 °F 21.2 °F 52% 30.08 in 10.0 mi SE 17.3 mph 23.0 mph N/A   Clear
3:55 PM 37.4 °F 28.2 °F 21.2 °F 52% 30.08 in 10.0 mi SE 16.1 mph 21.9 mph N/A   Clear
4:15 PM 37.4 °F 28.2 °F 21.2 °F 52% 30.07 in 10.0 mi SE 16.1 mph - N/A   Clear
4:35 PM 37.4 °F 28.5 °F 21.2 °F 52% 30.06 in 10.0 mi SE 15.0 mph 23.0 mph N/A   Clear
5:15 PM 35.6 °F 25.5 °F 21.2 °F 56% 30.04 in 10.0 mi SE 17.3 mph 25.3 mph N/A   Clear
5:35 PM 35.6 °F 24.8 °F 21.2 °F 56% 30.04 in 10.0 mi SE 19.6 mph 25.3 mph N/A   Clear
5:55 PM 35.6 °F 24.2 °F 23.0 °F 60% 30.02 in 10.0 mi SE 21.9 mph 28.8 mph N/A   Scattered Clouds
6:15 PM 35.6 °F 24.0 °F 23.0 °F 60% 30.02 in 10.0 mi SE 23.0 mph 28.8 mph N/A   Scattered Clouds
6:35 PM 35.6 °F 24.0 °F 23.0 °F 60% 30.01 in 10.0 mi SE 23.0 mph 29.9 mph N/A   Mostly Cloudy
6:55 PM 35.6 °F 23.7 °F 23.0 °F 60% 30.00 in 10.0 mi SE 24.2 mph 29.9 mph N/A   Overcast
7:15 PM 35.6 °F 24.8 °F 23.0 °F 60% 29.99 in 10.0 mi SE 19.6 mph 26.5 mph N/A   Overcast
7:35 PM 35.6 °F 23.7 °F 23.0 °F 60% 29.98 in 10.0 mi SE 24.2 mph 27.6 mph N/A   Overcast
7:55 PM 35.6 °F 23.7 °F 23.0 °F 60% 29.98 in 10.0 mi SSE 24.2 mph 29.9 mph N/A   Overcast
8:15 PM 35.6 °F 24.5 °F 23.0 °F 60% 29.98 in 10.0 mi SSE 20.7 mph 29.9 mph N/A   Overcast
8:35 PM 35.6 °F 24.2 °F 23.0 °F 60% 29.95 in 10.0 mi SSE 21.9 mph 28.8 mph N/A   Mostly Cloudy
8:55 PM 35.6 °F 24.8 °F 24.8 °F 65% 29.96 in 10.0 mi SSE 19.6 mph 27.6 mph N/A   Overcast
9:15 PM 37.4 °F 27.8 °F 24.8 °F 60% 29.95 in 10.0 mi SSE 17.3 mph 24.2 mph N/A   Overcast
9:35 PM 37.4 °F 27.2 °F 26.6 °F 65% 29.95 in 10.0 mi SSE 19.6 mph - N/A   Overcast
9:55 PM 37.4 °F 26.6 °F 26.6 °F 65% 29.93 in 10.0 mi SSE 21.9 mph - N/A   Overcast
10:15 PM 39.2 °F 29.8 °F 28.4 °F 65% 29.93 in 10.0 mi SSE 18.4 mph 24.2 mph N/A   Overcast
10:35 PM 39.2 °F 29.8 °F 28.4 °F 65% 29.93 in 10.0 mi SSE 18.4 mph 23.0 mph N/A   Overcast
10:55 PM 41.0 °F 31.9 °F 28.4 °F 61% 29.92 in 10.0 mi SSE 19.6 mph 25.3 mph N/A   Overcast
11:15 PM 41.0 °F 31.6 °F 30.2 °F 65% 29.92 in 10.0 mi SSE 20.7 mph 25.3 mph N/A   Overcast